Powrót do katalogu

STARLINK-37057

AktywnyŁącznośćSSO
NORAD 68161·PAYLOAD·🇺🇸 United States

Wystrzelony Mar 13, 2026 z Vandenberg Space Force Base

Loading…

Następne Przeloty (najbliższe 24 godziny)

TLE

ŚwieżeSource: CelesTrak SupGP

Epoka: Sep 15, 2026, 03:23 UTC

1 68161C 26049V   26258.14145833 -.00056069  00000+0 -17407-2 0  2581
2 68161  97.2837 278.1374 0001130  94.9054  38.6968 15.33463762    19

Śledź STARLINK-37057 w czasie rzeczywistym z AllMySat

Download on the App Store